Content
SEND FEEDBACK

Daily
Averages
Monthly
Summary
United States of America

DEXTER, GEORGIA


Home > North America > United States > Georgia
Elevation: 200 feet     Latitude: 32 30N     Longitude: 082 54W

WEATHER
 
SELECT A DAY
Number of Records: 223,911;   Date Range: 6/8/05 - 7/29/14
 
SHARE

PRINT THIS DATA

[ ← Previous Day ]
WEATHER ALMANAC - JANUARY 31, 2013
[ Next Day → ]
[ °C ]   °F
Weather ElementAverageHighLow
Temperature45.4 °F55.4 °F (3:35 pm)32 °F (11:35 pm)
Dewpoint25.6 °F44.6 °F (12:35 am)14 °F (4:35 pm)
Humidity49.8 %100 % (11:55 pm)21 % (4:35 pm)
Barometer30.10 in30.24 in (10:55 pm)29.85 in (12:35 am)
Wind Speed10 mph20.7 mph (1:55 am)
Wind Gust35.7 mph (1:55 am)
Weather ElementAverage
Visibility10 mi
Wind DirectionWSW (260.6 °)

Weather ElementTotal
Precipitation---
Heating Degree Days21.3 (Base 65)
Averaged from 70 records on January 31, 2013
WEATHER CONDITIONS BREAKOUT
WIND DIRECTION BREAKOUT
WEATHER BY HOUR - JANUARY 31, 2013
[ °C ]   °F
Local TimeTemperatureDewpointHumidityBarometerVisibilityWind DirectionWind SpeedGust SpeedPrecipitationEventsConditions
12:35 AM51.8 °F44.6 °F76 %29.85 in10.0 miWest (280°)17.3 mph23.0 mphOvercast
12:55 AM51.8 °F44.6 °F76 %29.87 in10.0 miWNW (290°)18.4 mph24.2 mphOvercast
1:15 AM51.8 °F37.4 °F58 %29.88 in10.0 miWNW (290°)18.4 mph34.5 mphScattered Clouds
1:35 AM50.0 °F37.4 °F62 %29.90 in10.0 miWest (280°)15.0 mph27.6 mphScattered Clouds
1:55 AM50.0 °F35.6 °F58 %29.91 in10.0 miWest (280°)20.7 mph35.7 mphScattered Clouds
2:15 AM48.2 °F33.8 °F58 %29.93 in10.0 miWNW (290°)19.6 mph32.2 mphMostly Cloudy
2:35 AM48.2 °F32.0 °F54 %29.93 in10.0 miWNW (300°)20.7 mph34.5 mphOvercast
2:55 AM46.4 °F32.0 °F57 %29.95 in10.0 miWNW (290°)15.0 mph27.6 mphScattered Clouds
3:15 AM44.6 °F30.2 °F57 %29.96 in10.0 miWNW (290°)17.3 mph25.3 mphClear
3:35 AM44.6 °F30.2 °F57 %29.97 in10.0 miWest (280°)12.7 mph21.9 mphClear
3:55 AM44.6 °F30.2 °F57 %29.97 in10.0 miWest (280°)11.5 mph20.7 mphClear
4:15 AM42.8 °F30.2 °F61 %29.98 in10.0 miWNW (290°)11.5 mph19.6 mphClear
4:35 AM42.8 °F30.2 °F61 %29.99 in10.0 miWNW (290°)16.1 mph21.9 mphClear
4:55 AM42.8 °F28.4 °F57 %29.99 in10.0 miWNW (290°)11.5 mph18.4 mphClear
5:15 AM42.8 °F26.6 °F53 %30.01 in10.0 miWNW (290°)9.2 mphClear
5:35 AM41.0 °F26.6 °F57 %30.02 in10.0 miWNW (300°)6.9 mph16.1 mphClear
5:55 AM41.0 °F26.6 °F57 %30.03 in10.0 miNW (310°)12.7 mph26.5 mphClear
6:15 AM41.0 °F26.6 °F57 %30.05 in10.0 miWNW (300°)4.6 mphClear
6:35 AM39.2 °F26.6 °F61 %30.07 in10.0 miWNW (300°)10.4 mphClear
6:55 AM39.2 °F26.6 °F61 %30.06 in10.0 miWNW (300°)9.2 mph17.3 mphClear
7:15 AM39.2 °F26.6 °F61 %30.06 in10.0 miNW (310°)6.9 mphClear
7:35 AM37.4 °F26.6 °F65 %30.08 in10.0 miWNW (300°)9.2 mph16.1 mphClear
7:55 AM37.4 °F26.6 °F65 %30.09 in10.0 miWNW (300°)6.9 mphClear
8:15 AM39.2 °F26.6 °F61 %30.09 in10.0 miNW (310°)8.1 mphClear
8:35 AM41.0 °F26.6 °F57 %30.09 in10.0 miNW (310°)6.9 mphClear
8:55 AM41.0 °F26.6 °F57 %30.10 in10.0 miWNW (300°)8.1 mph18.4 mphClear
9:15 AM41.0 °F26.6 °F57 %30.11 in10.0 miWNW (300°)9.2 mph18.4 mphClear
9:35 AM42.8 °F26.6 °F53 %30.12 in10.0 miWNW (300°)11.5 mph18.4 mphClear
9:55 AM42.8 °F26.6 °F53 %30.13 in10.0 miNW (310°)10.4 mph18.4 mphClear
10:15 AM42.8 °F24.8 °F49 %30.14 in10.0 miWest (280°)11.5 mphClear
10:35 AM44.6 °F23.0 °F43 %30.14 in10.0 miWNW (290°)10.4 mph18.4 mphClear
10:55 AM46.4 °F23.0 °F40 %30.14 in10.0 miWNW (300°)13.8 mph20.7 mphClear
11:15 AM46.4 °F23.0 °F40 %30.14 in10.0 miNW (320°)11.5 mphClear
11:35 AM48.2 °F21.2 °F34 %30.15 in10.0 miWest (280°)12.7 mph19.6 mphClear
11:55 AM50.0 °F21.2 °F32 %30.15 in10.0 miWNW (300°)13.8 mph24.2 mphClear
12:15 PM50.0 °F19.4 °F30 %30.15 in10.0 miNW (310°)13.8 mph21.9 mphClear
12:35 PM51.8 °F21.2 °F30 %30.14 in10.0 miWNW (300°)12.7 mph19.6 mphClear
12:55 PM51.8 °F21.2 °F30 %30.14 in10.0 miWest (280°)13.8 mph23.0 mphClear
1:15 PM51.8 °F19.4 °F28 %30.13 in10.0 miWest (270°)16.1 mph24.2 mphClear
1:35 PM53.6 °F17.6 °F24 %30.13 in10.0 miWNW (290°)16.1 mph24.2 mphClear
1:55 PM53.6 °F15.8 °F22 %30.12 in10.0 miWNW (300°)18.4 mph23.0 mphClear
2:15 PM53.6 °F17.6 °F24 %30.12 in10.0 miNW (320°)19.6 mph26.5 mphClear
2:35 PM53.6 °F17.6 °F24 %30.13 in10.0 miWNW (300°)12.7 mph24.2 mphClear
2:55 PM53.6 °F15.8 °F22 %30.13 in10.0 miNW (310°)15.0 mph26.5 mphClear
3:15 PM53.6 °F17.6 °F24 %30.13 in10.0 miWNW (290°)12.7 mph23.0 mphClear
3:35 PM55.4 °F17.6 °F23 %30.13 in10.0 miWNW (300°)18.4 mph24.2 mphClear
3:55 PM53.6 °F17.6 °F24 %30.13 in10.0 miNW (320°)12.7 mph21.9 mphClear
4:15 PM53.6 °F15.8 °F22 %30.13 in10.0 miNW (310°)8.1 mph21.9 mphClear
4:35 PM53.6 °F14.0 °F21 %30.13 in10.0 miWNW (290°)15.0 mph19.6 mphClear
4:55 PM53.6 °F17.6 °F24 %30.13 in10.0 miNW (320°)9.2 mphClear
5:15 PM53.6 °F17.6 °F24 %30.14 in10.0 miNW (310°)8.1 mphClear
5:35 PM51.8 °F17.6 °F26 %30.14 in10.0 miWNW (300°)9.2 mphClear
5:55 PM51.8 °F17.6 °F26 %30.15 in10.0 miNW (310°)8.1 mphClear
6:15 PM50.0 °F19.4 °F30 %30.16 in10.0 miWNW (300°)3.5 mphClear
6:35 PM48.2 °F19.4 °F32 %30.17 in10.0 miCalmClear
6:55 PM44.6 °F24.8 °F46 %30.17 in10.0 miWest (280°)3.5 mphClear
7:15 PM42.8 °F26.6 °F53 %30.17 in10.0 miCalmClear
7:35 PM42.8 °F28.4 °F57 %30.18 in10.0 miWest (280°)3.5 mphClear
7:55 PM42.8 °F26.6 °F53 %30.19 in10.0 miWNW (290°)4.6 mphClear
8:15 PM42.8 °F24.8 °F49 %30.20 in10.0 miWest (280°)4.6 mphClear
8:35 PM41.0 °F26.6 °F57 %30.20 in10.0 miWest (270°)3.5 mphClear
8:55 PM41.0 °F26.6 °F57 %30.21 in10.0 miWest (270°)3.5 mphClear
9:15 PM39.2 °F28.4 °F65 %30.22 in10.0 miCalmClear
9:35 PM39.2 °F28.4 °F65 %30.23 in10.0 miWest (260°)3.5 mphClear
9:55 PM37.4 °F30.2 °F75 %30.23 in10.0 miCalmClear
10:15 PM35.6 °F30.2 °F81 %30.23 in10.0 miCalmClear
10:55 PM33.8 °F30.2 °F87 %30.24 in10.0 miCalmClear
11:15 PM35.6 °F28.4 °F75 %30.24 in10.0 miWSW (250°)3.5 mphClear
11:35 PM32.0 °F30.2 °F93 %30.24 in10.0 miCalmClear
11:55 PM32.0 °F32.0 °F100 %30.24 in10.0 miCalmClear
Hourly data recorded from KDBN, located miles away from Dexter, Georgia







STORIES FROM OUR PARTNERS